| time (UTC) | temp C | wind direction | speed KPH | gust KPH | rain 1hr cm | rain 24hr cm | rain mn cm | humidity % | barometer mb |
| 20260502163147 | 22 | 121 | 1.6 | 3.2 | 0.00 | 0.00 | 0.00 | 60 | 1021.1 |
| 20260502162644 | 21 | 145 | 3.2 | 3.2 | 0.00 | 0.00 | 0.00 | 59 | 1021.0 |
| 20260502162141 | 21 | 282 | 1.6 | 3.2 | 0.00 | 0.00 | 0.00 | 62 | 1021.0 |
| 20260502161638 | 22 | 99 | 0.0 | 1.6 | 0.00 | 0.00 | 0.00 | 62 | 1021.2 |
| 20260502161134 | 21 | 54 | 1.6 | 1.6 | 0.00 | 0.00 | 0.00 | 63 | 1021.0 |
| 20260502160632 | 21 | 66 | 0.0 | 1.6 | 0.00 | 0.00 | 0.00 | 65 | 1020.9 |
| 20260502160131 | 21 | 60 | 3.2 | 8.0 | 0.00 | 0.00 | 0.00 | 65 | 1021.0 |
| 20260502152045 | 20 | 57 | 1.6 | 3.2 | 0.00 | 0.00 | 0.00 | 70 | 1020.8 |
| 20260502151542 | 19 | 96 | 0.0 | 1.6 | 0.00 | 0.00 | 0.00 | 74 | 1020.8 |
| 20260502151040 | 18 | 58 | 3.2 | 4.8 | 0.00 | 0.00 | 0.00 | 74 | 1020.8 |
| 20260502150537 | 18 | 112 | 1.6 | 3.2 | 0.00 | 0.00 | 0.00 | 73 | 1021.0 |
| 20260502130422 | 14 | 135 | 3.2 | 4.8 | 0.00 | 0.00 | 0.00 | 91 | 1019.7 |
| 20260502123404 | 13 | 145 | 1.6 | 1.6 | 0.00 | 0.00 | 0.00 | 93 | 1019.4 |
| 20260502122902 | 13 | 146 | 0.0 | 0.0 | 0.00 | 0.00 | 0.00 | 93 | 1019.3 |
| 20260502122358 | 13 | 46 | 3.2 | 3.2 | 0.00 | 0.00 | 0.00 | 93 | 1019.2 |
| 20260502121856 | 12 | 157 | 0.0 | 1.6 | 0.00 | 0.00 | 0.00 | 93 | 1019.1 |
| 20260502121353 | 12 | 149 | 0.0 | 1.6 | 0.00 | 0.00 | 0.00 | 94 | 1019.1 |
| 20260502120851 | 12 | 137 | 1.6 | 1.6 | 0.00 | 0.00 | 0.00 | 94 | 1019.0 |
| 20260502120346 | 12 | 146 | 1.6 | 3.2 | 0.00 | 0.00 | 0.00 | 94 | 1018.9 |
| 20260502115844 | 12 | 112 | 0.0 | 0.0 | 0.00 | 0.00 | 0.00 | 94 | 1018.7 |
| 20260502115341 | 12 | 150 | 1.6 | 1.6 | 0.00 | 0.00 | 0.00 | 94 | 1018.5 |
| 20260502114837 | 12 | 124 | 0.0 | 1.6 | 0.00 | 0.00 | 0.00 | 94 | 1018.5 |
| 20260502114334 | 12 | 108 | 1.6 | 1.6 | 0.00 | 0.00 | 0.00 | 94 | 1018.3 |
| 20260502113831 | 12 | 140 | 0.0 | 0.0 | 0.00 | 0.00 | 0.00 | 94 | 1018.5 |
| 20260502113329 | 12 | 123 | 0.0 | 0.0 | 0.00 | 0.00 | 0.00 | 94 | 1018.4 |
| 20260502112827 | 12 | 130 | 1.6 | 1.6 | 0.00 | 0.00 | 0.00 | 94 | 1018.3 |
| 20260502112324 | 12 | 158 | 1.6 | 3.2 | 0.00 | 0.00 | 0.00 | 94 | 1018.1 |
| 20260502111822 | 12 | 122 | 0.0 | 1.6 | 0.00 | 0.00 | 0.00 | 94 | 1018.2 |
| 20260502111319 | 12 | 123 | 0.0 | 1.6 | 0.00 | 0.00 | 0.00 | 94 | 1018.0 |
| 20260502110816 | 12 | 146 | 0.0 | 0.0 | 0.00 | 0.00 | 0.00 | 94 | 1017.8 |
| 20260502110314 | 12 | 166 | 3.2 | 3.2 | 0.00 | 0.00 | 0.00 | 93 | 1018.0 |
| 20260502105812 | 12 | 125 | 0.0 | 1.6 | 0.00 | 0.00 | 0.00 | 93 | 1017.7 |
| 20260502105308 | 13 | 136 | 0.0 | 0.0 | 0.00 | 0.00 | 0.00 | 92 | 1017.8 |
| 20260502104806 | 13 | 177 | 1.6 | 1.6 | 0.00 | 0.00 | 0.00 | 91 | 1017.8 |
| 20260502104303 | 13 | 135 | 0.0 | 0.0 | 0.00 | 0.00 | 0.00 | 91 | 1017.7 |
| 20260502103800 | 13 | 97 | 0.0 | 1.6 | 0.00 | 0.00 | 0.00 | 92 | 1017.5 |
| 20260502103257 | 13 | 135 | 0.0 | 0.0 | 0.00 | 0.00 | 0.00 | 93 | 1017.6 |
| 20260502102755 | 13 | 136 | 0.0 | 0.0 | 0.00 | 0.00 | 0.00 | 94 | 1017.5 |
| 20260502102251 | 13 | 102 | 0.0 | 1.6 | 0.00 | 0.00 | 0.00 | 95 | 1017.4 |
| 20260502101749 | 13 | 122 | 0.0 | 0.0 | 0.00 | 0.00 | 0.00 | 95 | 1017.4 |
| 20260502101247 | 13 | 81 | 0.0 | 0.0 | 0.00 | 0.00 | 0.00 | 95 | 1017.2 |
| 20260502100745 | 13 | 124 | 0.0 | 1.6 | 0.00 | 0.00 | 0.00 | 94 | 1017.2 |
| 20260502100243 | 13 | 142 | 0.0 | 1.6 | 0.00 | 0.00 | 0.00 | 95 | 1017.0 |
| 20260502091217 | 13 | 172 | 3.2 | 3.2 | 0.00 | 0.00 | 0.00 | 94 | 1016.2 |
| 20260502090715 | 13 | 93 | 1.6 | 4.8 | 0.00 | 0.00 | 0.00 | 94 | 1016.4 |
| 20260502090211 | 13 | 93 | 1.6 | 1.6 | 0.00 | 0.00 | 0.00 | 94 | 1016.3 |
| 20260502071107 | 13 | 158 | 0.0 | 0.0 | 0.00 | 0.00 | 0.00 | 98 | 1016.2 |
| 20260502070605 | 13 | 118 | 0.0 | 0.0 | 0.00 | 0.00 | 0.00 | 98 | 1016.2 |
| 20260502065600 | 13 | 76 | 1.6 | 4.8 | 0.00 | 0.00 | 0.00 | 99 | 1015.9 |
| 20260502065058 | 13 | 52 | 1.6 | 1.6 | 0.00 | 0.00 | 0.00 | 99 | 1016.2 |
| 20260502064556 | 13 | 131 | 0.0 | 0.0 | 0.00 | 0.00 | 0.00 | 99 | 1015.9 |
| 20260502064053 | 13 | 98 | 1.6 | 1.6 | 0.00 | 0.00 | 0.00 | 99 | 1016.0 |
| 20260502063551 | 13 | 112 | 3.2 | 3.2 | 0.00 | 0.00 | 0.00 | 99 | 1016.0 |
| 20260502063048 | 13 | 130 | 0.0 | 0.0 | 0.00 | 0.00 | 0.00 | 99 | 1015.9 |
| 20260502062545 | 13 | 155 | 0.0 | 0.0 | 0.00 | 0.00 | 0.00 | 99 | 1016.1 |
| 20260502062043 | 13 | 144 | 0.0 | 0.0 | 0.00 | 0.00 | 0.00 | 99 | 1015.9 |
| 20260502061541 | 13 | 60 | 0.0 | 1.6 | 0.00 | 0.00 | 0.00 | 99 | 1015.9 |
| 20260502061038 | 13 | 104 | 1.6 | 1.6 | 0.00 | 0.00 | 0.00 | 99 | 1015.9 |
| 20260502060533 | 13 | 111 | 0.0 | 0.0 | 0.00 | 0.00 | 0.00 | 99 | 1015.8 |
| 20260502060030 | 13 | 229 | 1.6 | 3.2 | 0.00 | 0.00 | 0.00 | 99 | 1015.8 |
| 20260502055528 | 13 | 68 | 1.6 | 3.2 | 0.00 | 0.00 | 0.00 | 99 | 1016.1 |
| 20260502055026 | 13 | 158 | 1.6 | 3.2 | 0.00 | 0.00 | 0.00 | 99 | 1016.0 |
| 20260502054525 | 13 | 73 | 3.2 | 4.8 | 0.00 | 0.00 | 0.00 | 99 | 1016.0 |
| 20260502054021 | 13 | 95 | 1.6 | 4.8 | 0.00 | 0.00 | 0.00 | 99 | 1016.2 |
| 20260502053518 | 13 | 67 | 0.0 | 1.6 | 0.00 | 0.00 | 0.00 | 99 | 1016.2 |
| 20260502053016 | 13 | 82 | 1.6 | 1.6 | 0.00 | 0.00 | 0.00 | 99 | 1016.3 |
| 20260502052514 | 13 | 44 | 0.0 | 1.6 | 0.00 | 0.00 | 0.00 | 99 | 1016.2 |
| 20260502052012 | 13 | 51 | 3.2 | 8.0 | 0.00 | 0.00 | 0.00 | 99 | 1016.1 |
| 20260502051510 | 13 | 146 | 0.0 | 1.6 | 0.00 | 0.00 | 0.00 | 99 | 1016.1 |
| 20260502051007 | 13 | 121 | 6.4 | 8.0 | 0.00 | 0.00 | 0.00 | 99 | 1016.1 |
| 20260502050503 | 13 | 162 | 0.0 | 1.6 | 0.00 | 0.00 | 0.00 | 99 | 1016.1 |
| 20260502050000 | 13 | 148 | 0.0 | 0.0 | 0.00 | 0.00 | 0.00 | 99 | 1016.1 |
| 20260502045457 | 13 | 126 | 1.6 | 3.2 | 0.00 | 4.04 | 4.04 | 99 | 1016.3 |
| 20260502044954 | 13 | 59 | 3.2 | 4.8 | 0.00 | 4.04 | 4.04 | 99 | 1016.1 |
| 20260502044450 | 13 | 54 | 6.4 | 11.3 | 0.00 | 4.04 | 4.04 | 99 | 1016.1 |
| 20260502043947 | 13 | 123 | 0.0 | 0.0 | 0.00 | 4.04 | 4.04 | 99 | 1016.3 |
| 20260502043445 | 13 | 72 | 1.6 | 3.2 | 0.00 | 4.04 | 4.04 | 99 | 1016.1 |
| 20260502042944 | 13 | 311 | 3.2 | 4.8 | 0.00 | 4.04 | 4.04 | 99 | 1016.1 |
| 20260502042441 | 13 | 359 | 3.2 | 4.8 | 0.00 | 4.04 | 4.04 | 99 | 1016.1 |
| 20260502041938 | 13 | 129 | 3.2 | 8.0 | 0.00 | 4.04 | 4.04 | 99 | 1015.9 |
| 20260502041436 | 14 | 118 | 4.8 | 8.0 | 0.00 | 4.04 | 4.04 | 99 | 1016.0 |
| 20260502040933 | 14 | 138 | 3.2 | 4.8 | 0.00 | 4.04 | 4.04 | 99 | 1015.9 |
| 20260502040429 | 14 | 105 | 1.6 | 3.2 | 0.00 | 4.04 | 4.04 | 99 | 1016.1 |
| 20260502035926 | 14 | 110 | 0.0 | 1.6 | 0.00 | 4.04 | 4.04 | 99 | 1015.9 |
| 20260502035422 | 14 | 117 | 0.0 | 1.6 | 0.00 | 4.04 | 4.04 | 99 | 1015.5 |
| 20260502034920 | 14 | 139 | 3.2 | 8.0 | 0.00 | 4.04 | 4.04 | 99 | 1015.4 |
| 20260502034419 | 14 | 99 | 3.2 | 3.2 | 0.00 | 4.04 | 4.04 | 99 | 1015.4 |
| 20260502033917 | 15 | 108 | 1.6 | 3.2 | 0.00 | 4.04 | 4.04 | 99 | 1015.3 |
| 20260502033414 | 15 | 66 | 0.0 | 0.0 | 0.00 | 4.04 | 4.04 | 99 | 1015.1 |
| 20260502032910 | 15 | 140 | 0.0 | 1.6 | 0.00 | 4.04 | 4.04 | 99 | 1015.2 |
| 20260502032407 | 15 | 138 | 6.4 | 11.3 | 0.18 | 4.04 | 4.04 | 99 | 1014.9 |
| 20260502031904 | 15 | 90 | 0.0 | 1.6 | 0.18 | 4.04 | 4.04 | 99 | 1014.6 |
| 20260502031402 | 15 | 172 | 0.0 | 1.6 | 0.00 | 4.01 | 4.01 | 99 | 1014.4 |
| 20260502030900 | 15 | 166 | 0.0 | 1.6 | 0.00 | 4.01 | 4.01 | 99 | 1014.1 |
| 20260502030358 | 15 | 110 | 0.0 | 1.6 | 0.00 | 4.01 | 4.01 | 99 | 1014.2 |
| 20260502025855 | 15 | 116 | 0.0 | 0.0 | 0.13 | 4.01 | 4.01 | 99 | 1014.4 |
| 20260502025353 | 15 | 112 | 1.6 | 3.2 | 0.30 | 4.01 | 4.01 | 99 | 1014.2 |
| 20260502024850 | 15 | 120 | 0.0 | 0.0 | 0.18 | 3.99 | 3.99 | 99 | 1014.2 |
| 20260502024348 | 15 | 105 | 0.0 | 1.6 | 0.00 | 3.96 | 3.96 | 99 | 1014.1 |
| 20260502023846 | 15 | 64 | 0.0 | 1.6 | 0.00 | 3.96 | 3.96 | 99 | 1014.7 |
| 20260502023343 | 15 | 66 | 3.2 | 4.8 | 0.00 | 3.96 | 3.96 | 99 | 1014.7 |
| 20260502022841 | 15 | 128 | 0.0 | 0.0 | 0.00 | 3.96 | 3.96 | 99 | 1014.5 |
| 20260502022337 | 15 | 69 | 4.8 | 8.0 | 0.00 | 3.96 | 3.96 | 99 | 1014.2 |
| 20260502021834 | 15 | 125 | 1.6 | 3.2 | 0.00 | 3.96 | 3.96 | 99 | 1014.4 |
| 20260502021331 | 15 | 144 | 0.0 | 0.0 | 0.13 | 3.96 | 3.96 | 99 | 1014.2 |
| 20260502020829 | 15 | 156 | 1.6 | 3.2 | 0.13 | 3.96 | 3.96 | 99 | 1014.1 |
| 20260502020326 | 15 | 136 | 0.0 | 1.6 | 0.00 | 3.94 | 3.94 | 99 | 1014.0 |
| 20260502015823 | 15 | 99 | 1.6 | 3.2 | 0.00 | 3.94 | 3.94 | 99 | 1013.8 |
| 20260502015320 | 15 | 135 | 0.0 | 0.0 | 0.00 | 3.94 | 3.94 | 99 | 1014.0 |
| 20260502014817 | 15 | 136 | 0.0 | 0.0 | 0.30 | 3.94 | 3.94 | 99 | 1013.9 |
| 20260502014314 | 15 | 153 | 0.0 | 0.0 | 0.61 | 3.94 | 3.94 | 99 | 1013.6 |
| 20260502013810 | 15 | 154 | 0.0 | 0.0 | 0.61 | 3.89 | 3.89 | 99 | 1013.4 |
| 20260502013306 | 15 | 152 | 0.0 | 0.0 | 0.48 | 3.84 | 3.84 | 99 | 1013.6 |
| 20260502012803 | 15 | 148 | 0.0 | 1.6 | 0.18 | 3.78 | 3.78 | 99 | 1013.4 |
| 20260502012300 | 15 | 143 | 1.6 | 3.2 | 0.00 | 3.76 | 3.76 | 99 | 1013.0 |
| 20260502011758 | 15 | 151 | 1.6 | 1.6 | 0.00 | 3.76 | 3.76 | 99 | 1012.4 |
| 20260502011254 | 15 | 152 | 0.0 | 0.0 | 0.18 | 3.76 | 3.76 | 99 | 1011.9 |
| 20260502010751 | 15 | 114 | 0.0 | 0.0 | 0.48 | 3.76 | 3.76 | 99 | 1011.9 |
| 20260502010247 | 15 | 125 | 0.0 | 1.6 | 0.71 | 3.73 | 3.73 | 99 | 1012.1 |
| 20260502005744 | 15 | 75 | 0.0 | 1.6 | 0.89 | 3.68 | 3.68 | 99 | 1012.0 |
| 20260502005242 | 15 | 154 | 1.6 | 3.2 | 0.89 | 3.61 | 3.61 | 99 | 1012.2 |
| 20260502004739 | 15 | 78 | 3.2 | 4.8 | 1.07 | 3.53 | 3.53 | 99 | 1012.6 |
| 20260502004235 | 15 | 85 | 0.0 | 1.6 | 0.97 | 3.45 | 3.45 | 99 | 1012.4 |
| 20260502003733 | 15 | 182 | 1.6 | 3.2 | 0.61 | 3.38 | 3.38 | 99 | 1011.8 |
| 20260502003230 | 15 | 16 | 3.2 | 8.0 | 0.30 | 3.30 | 3.30 | 99 | 1011.3 |
| 20260502002726 | 16 | 199 | 0.0 | 1.6 | 0.00 | 3.25 | 3.25 | 99 | 1011.3 |
| 20260502002224 | 16 | 86 | 3.2 | 3.2 | 0.13 | 3.25 | 3.25 | 99 | 1011.2 |
| 20260502001720 | 16 | 108 | 1.6 | 1.6 | 0.13 | 3.25 | 3.25 | 99 | 1010.9 |
| 20260502001219 | 16 | 133 | 4.8 | 8.0 | 0.00 | 3.23 | 3.23 | 99 | 1010.3 |
| 20260502000716 | 16 | 82 | 4.8 | 8.0 | 0.00 | 3.23 | 3.23 | 99 | 1010.5 |
| 20260502000214 | 16 | 161 | 0.0 | 1.6 | 0.00 | 3.23 | 3.23 | 99 | 1010.9 |
| 20260501235709 | 16 | 113 | 4.8 | 12.9 | 0.18 | 3.23 | 3.23 | 99 | 1011.4 |
| 20260501235205 | 16 | 50 | 0.0 | 0.0 | 0.18 | 3.23 | 3.23 | 99 | 1011.3 |
| 20260501234701 | 17 | 135 | 0.0 | 0.0 | 0.30 | 3.20 | 3.20 | 99 | 1011.1 |
| 20260501234159 | 17 | 61 | 1.6 | 1.6 | 0.30 | 3.20 | 3.20 | 99 | 1010.4 |
| 20260501233657 | 17 | 129 | 0.0 | 1.6 | 0.00 | 3.15 | 3.15 | 99 | 1010.4 |
| 20260501233153 | 17 | 132 | 0.0 | 1.6 | 0.13 | 3.15 | 3.15 | 99 | 1010.2 |
| 20260501232649 | 17 | 118 | 0.0 | 1.6 | 0.13 | 3.15 | 3.15 | 99 | 1010.1 |
| 20260501232147 | 17 | 143 | 1.6 | 1.6 | 0.18 | 3.12 | 3.12 | 99 | 1010.3 |
| 20260501231645 | 17 | 80 | 0.0 | 1.6 | 0.36 | 3.12 | 3.12 | 99 | 1009.7 |
| 20260501231143 | 17 | 162 | 0.0 | 0.0 | 0.30 | 3.10 | 3.10 | 99 | 1010.0 |
| 20260501230641 | 17 | 100 | 0.0 | 1.6 | 0.61 | 3.07 | 3.07 | 99 | 1009.8 |
| 20260501230139 | 17 | 75 | 1.6 | 3.2 | 0.89 | 3.05 | 3.05 | 99 | 1010.3 |
| 20260501225636 | 17 | 123 | 0.0 | 1.6 | 0.43 | 2.97 | 2.97 | 99 | 1010.4 |
| 20260501225132 | 17 | 119 | 0.0 | 0.0 | 0.00 | 2.90 | 2.90 | 99 | 1010.5 |
| 20260501224629 | 17 | 104 | 0.0 | 1.6 | 0.00 | 2.90 | 2.90 | 99 | 1010.5 |
| 20260501224126 | 17 | 154 | 0.0 | 1.6 | 0.00 | 2.90 | 2.90 | 99 | 1010.4 |
| 20260501223623 | 17 | 91 | 0.0 | 0.0 | 0.18 | 2.90 | 2.90 | 99 | 1010.7 |
| 20260501223119 | 17 | 72 | 1.6 | 3.2 | 0.30 | 2.90 | 2.90 | 99 | 1011.4 |
| 20260501222615 | 17 | 134 | 0.0 | 0.0 | 0.13 | 2.87 | 2.87 | 99 | 1011.7 |
| 20260501222112 | 17 | 102 | 0.0 | 0.0 | 0.00 | 2.84 | 2.84 | 99 | 1011.7 |
| 20260501221609 | 17 | 136 | 1.6 | 4.8 | 0.18 | 2.84 | 2.84 | 99 | 1011.5 |
| 20260501221107 | 17 | 70 | 0.0 | 0.0 | 0.18 | 2.84 | 2.84 | 99 | 1011.3 |
| 20260501220605 | 17 | 120 | 0.0 | 0.0 | 0.13 | 2.82 | 2.82 | 99 | 1011.1 |
| 20260501220101 | 17 | 166 | 1.6 | 1.6 | 0.13 | 2.82 | 2.82 | 99 | 1011.1 |
| 20260501215558 | 17 | 79 | 1.6 | 1.6 | 0.18 | 2.79 | 2.79 | 99 | 1010.7 |
| 20260501215053 | 17 | 84 | 0.0 | 1.6 | 0.48 | 2.79 | 2.79 | 99 | 1010.1 |
| 20260501214548 | 17 | 125 | 0.0 | 0.0 | 0.79 | 2.77 | 2.77 | 99 | 1010.3 |
| 20260501214044 | 17 | 65 | 0.0 | 1.6 | 0.61 | 2.72 | 2.72 | 99 | 1010.0 |
| 20260501213541 | 17 | 147 | 1.6 | 1.6 | 0.61 | 2.64 | 2.64 | 99 | 1011.0 |
| 20260501213037 | 17 | 91 | 0.0 | 1.6 | 0.61 | 2.62 | 2.62 | 99 | 1010.5 |
| 20260501212533 | 17 | 70 | 1.6 | 3.2 | 0.61 | 2.54 | 2.54 | 99 | 1010.1 |
| 20260501212031 | 17 | 104 | 0.0 | 1.6 | 1.37 | 2.51 | 2.51 | 99 | 1011.4 |
| 20260501211527 | 17 | 153 | 1.6 | 1.6 | 1.19 | 2.44 | 2.44 | 99 | 1011.0 |
| 20260501211026 | 17 | 113 | 0.0 | 0.0 | 0.61 | 2.26 | 2.26 | 99 | 1010.7 |
| 20260501210521 | 17 | 152 | 0.0 | 0.0 | 0.79 | 2.21 | 2.21 | 99 | 1010.9 |
| 20260501210018 | 17 | 111 | 0.0 | 0.0 | 0.79 | 2.16 | 2.16 | 99 | 1010.5 |
| 20260501205515 | 17 | 71 | 0.0 | 0.0 | 0.30 | 2.08 | 2.08 | 99 | 1010.1 |
| 20260501205013 | 17 | 65 | 0.0 | 1.6 | 0.13 | 2.03 | 2.03 | 99 | 1010.2 |
| 20260501204508 | 17 | 148 | 0.0 | 0.0 | 0.30 | 2.03 | 2.03 | 99 | 1010.2 |
| 20260501204005 | 17 | 160 | 1.6 | 3.2 | 0.48 | 2.01 | 2.01 | 99 | 1010.0 |
| 20260501203501 | 17 | 79 | 0.0 | 0.0 | 0.71 | 1.98 | 1.98 | 99 | 1009.4 |
| 20260501202959 | 17 | 116 | 1.6 | 3.2 | 0.43 | 1.93 | 1.93 | 99 | 1009.4 |
| 20260501202455 | 17 | 142 | 0.0 | 1.6 | 0.00 | 1.85 | 1.85 | 99 | 1010.7 |
| 20260501201952 | 17 | 177 | 1.6 | 1.6 | 0.18 | 1.85 | 1.85 | 99 | 1011.0 |
| 20260501201450 | 17 | 57 | 1.6 | 3.2 | 0.18 | 1.85 | 1.85 | 99 | 1009.6 |
| 20260501200946 | 17 | 155 | 3.2 | 4.8 | 0.30 | 1.83 | 1.83 | 99 | 1009.0 |
| 20260501200443 | 17 | 93 | 0.0 | 1.6 | 0.30 | 1.83 | 1.83 | 99 | 1008.7 |
| 20260501195940 | 17 | 80 | 0.0 | 0.0 | 0.00 | 1.78 | 1.78 | 99 | 1009.4 |
| 20260501195437 | 17 | 66 | 1.6 | 3.2 | 0.18 | 1.78 | 1.78 | 99 | 1009.9 |
| 20260501194933 | 18 | 61 | 0.0 | 1.6 | 0.18 | 1.78 | 1.78 | 99 | 1010.1 |
| 20260501194429 | 18 | 153 | 0.0 | 0.0 | 0.13 | 1.75 | 1.75 | 99 | 1010.3 |
| 20260501193925 | 18 | 88 | 0.0 | 0.0 | 0.43 | 1.75 | 1.75 | 99 | 1010.2 |
| 20260501193423 | 18 | 82 | 0.0 | 1.6 | 0.30 | 1.70 | 1.70 | 99 | 1009.6 |
| 20260501192921 | 18 | 77 | 0.0 | 0.0 | 0.18 | 1.68 | 1.68 | 99 | 1009.5 |
| 20260501192418 | 18 | 120 | 0.0 | 0.0 | 0.13 | 1.65 | 1.65 | 99 | 1009.8 |
| 20260501191915 | 18 | 134 | 0.0 | 0.0 | 0.30 | 1.65 | 1.65 | 99 | 1009.8 |
| 20260501191412 | 18 | 74 | 0.0 | 1.6 | 0.18 | 1.63 | 1.63 | 99 | 1009.9 |
| 20260501190910 | 18 | 105 | 0.0 | 0.0 | 0.00 | 1.60 | 1.60 | 99 | 1010.2 |
| 20260501190406 | 18 | 74 | 0.0 | 0.0 | 0.00 | 1.60 | 1.60 | 99 | 1009.9 |
| 20260501185905 | 18 | 144 | 3.2 | 4.8 | 0.00 | 1.60 | 1.60 | 99 | 1010.3 |
| 20260501185402 | 18 | 148 | 0.0 | 0.0 | 0.13 | 1.60 | 1.60 | 99 | 1010.4 |
| 20260501184858 | 18 | 74 | 0.0 | 0.0 | 0.43 | 1.60 | 1.60 | 99 | 1010.3 |
| 20260501184354 | 18 | 145 | 0.0 | 1.6 | 0.48 | 1.57 | 1.57 | 99 | 1010.4 |
| 20260501183849 | 18 | 94 | 1.6 | 3.2 | 0.18 | 1.52 | 1.52 | 99 | 1010.2 |
| 20260501183347 | 18 | 81 | 0.0 | 0.0 | 0.00 | 1.50 | 1.50 | 99 | 1010.2 |
| 20260501182843 | 18 | 153 | 0.0 | 1.6 | 0.00 | 1.50 | 1.50 | 99 | 1010.2 |
| 20260501182340 | 18 | 95 | 0.0 | 0.0 | 0.00 | 1.50 | 1.50 | 99 | 1010.2 |
| 20260501181837 | 18 | 50 | 0.0 | 1.6 | 0.00 | 1.50 | 1.50 | 99 | 1010.2 |
| 20260501181334 | 18 | 130 | 0.0 | 0.0 | 0.00 | 1.50 | 1.50 | 99 | 1010.0 |
| 20260501180832 | 18 | 77 | 1.6 | 3.2 | 0.00 | 1.50 | 1.50 | 99 | 1010.0 |
| 20260501180327 | 18 | 164 | 0.0 | 1.6 | 0.00 | 1.50 | 1.50 | 99 | 1010.0 |
| 20260501175825 | 18 | 84 | 0.0 | 0.0 | 0.00 | 1.50 | 1.50 | 99 | 1010.2 |
| 20260501175321 | 18 | 75 | 0.0 | 1.6 | 0.00 | 1.50 | 1.50 | 99 | 1010.4 |
| 20260501174818 | 18 | 126 | 0.0 | 1.6 | 0.00 | 1.50 | 1.50 | 99 | 1011.0 |
| 20260501174315 | 17 | 144 | 0.0 | 1.6 | 0.00 | 1.50 | 1.50 | 99 | 1010.9 |
| 20260501173814 | 18 | 152 | 0.0 | 0.0 | 0.00 | 1.50 | 1.50 | 99 | 1010.9 |
| 20260501173311 | 18 | 86 | 0.0 | 0.0 | 0.00 | 1.50 | 1.50 | 99 | 1011.2 |
| 20260501172806 | 17 | 72 | 0.0 | 1.6 | 0.00 | 1.50 | 1.50 | 99 | 1011.1 |
| 20260501172305 | 17 | 152 | 3.2 | 4.8 | 0.00 | 1.50 | 1.50 | 99 | 1011.1 |
| 20260501171757 | 17 | 69 | 1.6 | 1.6 | 0.30 | 1.50 | 1.50 | 99 | 1011.3 |
| 20260501171254 | 17 | 178 | 0.0 | 1.6 | 1.85 | 1.50 | 1.50 | 99 | 1011.5 |
| 20260501170751 | 17 | 119 | 0.0 | 0.0 | 3.07 | 1.45 | 1.45 | 99 | 1011.0 |
| 20260501170248 | 17 | 152 | 0.0 | 1.6 | 2.29 | 1.19 | 1.19 | 99 | 1012.8 |
| 20260501165745 | 18 | 68 | 3.2 | 4.8 | 0.89 | 0.94 | 0.94 | 99 | 1013.5 |
| 20260501165243 | 18 | 326 | 3.2 | 3.2 | 0.79 | 0.84 | 0.84 | 99 | 1012.3 |
| 20260501164741 | 18 | 149 | 0.0 | 1.6 | 0.48 | 0.79 | 0.79 | 99 | 1011.0 |
| 20260501164237 | 18 | 81 | 0.0 | 1.6 | 0.13 | 0.71 | 0.71 | 99 | 1010.8 |
| 20260501163733 | 18 | 144 | 1.6 | 3.2 | 0.13 | 0.71 | 0.71 | 99 | 1010.6 |